Weather WX

World > North America > United States > New York

North Wilmurt, New York Regional Weather

Lat: 43.33N, Lon: 75.2W
Wx Zone: NYZ009
Feedback

North Wilmurt, NY Regional Weather

Expires:201906171000;;205740
ASUS41 KBGM 170910
RWRBGM

REGIONAL WEATHER ROUNDUP
NATIONAL WEATHER SERVICE BINGHAMTON NY
500 AM EDT MON JUN 17 2019

Note: "fair" indicates few or no clouds below 12,000 feet with no
significant weather and/or obstructions to visibility.

* = Station(s) that does not report precipitation, such as rain, 
snow, etc, also no thunder or fog.


NYZ009-015>018-022>025-036-037-044>046-055>057-062-171000
...Central New York...
  
CITY           SKY/WX    TMP DP  RH WIND       PRES   REMARKS
Binghamton     CLOUDY    55  54  96 N6        29.97R VSB 1            
Cortland       FAIR      50  50 100 CALM      29.99R                  
Dansville      CLOUDY    51  51 100 SE6       29.99S FOG              
Elmira         CLOUDY    52  51  97 CALM      29.99R FOG              
Endicott       CLOUDY    57  57 100 CALM      29.97R                  
Ithaca         FOG       52  52 100 CALM      29.99S VSB 1            
Hamilton       CLOUDY    52  52 100 CALM      29.98R VSB 1/2          
Hornell        CLOUDY   N/A N/A N/A SE5       30.02S                  
Monticello     CLOUDY    61  59  93 N3        29.96R                  
Norwich        CLOUDY    55  54  94 CALM      29.98R                  
Oneonta        MOCLDY    55  55 100 CALM      29.98R                  
Penn Yan       FOG       53  52  96 SW3       29.99S VSB 1/4          
Rome           FOG       53  53 100 CALM      29.98S VSB 1/2          
Seneca Falls   FOG       52  52 100 CALM      29.99S VSB 1/4          
Sidney         CLOUDY    57  57 100 CALM      29.97S                  
Skaneateles    FAIR      48  48 100 CALM      29.99R FOG              
Syracuse       FAIR      49  47  93 CALM      29.98S                  
$$
 

SKY/WX - Weather  TMP - Temperature  DP - Dew Point  RH - Relative Humidity
WIND - Wind Direction/Speed PRES - Barometric Pressure VSB - Visibility
WCI - Wind Chill Index E13G22 Wind - East Wind 13 mph/Gusts of 22 mph